Location: Palomar Mountain Lodge
(33.3110°N, 116.8495°W)
Time: 05:40:01
(UTC-07:00)

Lacrosse 5 rocket - Pass Details

Date: 19 May 2017
Orbit: 459 x 644 km, 57.0° (Epoch: 21 July)

Event Time Altitude Azimuth Distance (km) Brightness Sun altitude
Rises 20:20:30 0° 254° (WSW) 2,796 5.6 -7.7°
Reaches altitude 10° 20:23:10 10° 270° (W) 1,932 5.1 -8.1°
Maximum altitude 20:26:34 21° 320° (NW) 1,376 4.4 -8.7°
Drops below altitude 10° 20:30:05 10° 11° (N) 2,005 4.5 -9.4°
Sets 20:32:54 0° 27° (NNE) 2,933 5.1 -9.9°
